Regional Weather Roundup
Issued by NWS

Home | Current Version | Previous Version | Graphics & Text | Print | Product List | Glossary On
Versions: 1 2 3 4 5 6 7 8 9 10 11 12 13 14 15 16 17 18 19 20 21 22 23 24 25 26 27 28 29 30 31 32 33 34 35 36 37 38 39 40 41 42 43 44 45 46 47 48 49 50
000
ASUS44 KMEG 260510
RWRTN
TENNESSEE HOURLY STATE WEATHER ROUNDUP
NATIONAL WEATHER SERVICE MEMPHIS TN
1200 AM CDT SAT MAY 26 2018

TNZ002-004-019-021-049-052-054-088>092-260600-
WEST TENNESSEE

CITY           SKY/WX    TMP DP  RH WIND       PRES   REMARKS
MEMPHIS INTL   MOCLDY    73  70  90 S9        29.87F
NWS MEMPHIS      N/A     71 N/A N/A MISG        N/A
JACKSON        FAIR      70  69  97 S6        29.88F
SOMERVILLE       N/A     70  68  94 VRB6      29.88F
COVINGTON      CLEAR     72  70  94 S5        29.88F
UNION CITY     PTCLDY    72  70  94 CALM      29.88S
BOLIVAR        PTCLDY    70  68  94 S6        29.90F
PARIS          CLEAR     72  70  94 S6        29.89F
HUNTINGDON     CLEAR     72  68  88 S6        29.89S
LEXINGTON      CLEAR     70  68  94 S6        29.90F
SELMER         PTCLDY    70  68  94 VRB3      29.89F
SAVANNAH       CLOUDY    70  70 100 SE3       29.89F
$$

TNZ008-025-027-028-033-062-065-066-260600-
NORTH MIDDLE TENNESSEE

CITY           SKY/WX    TMP DP  RH WIND       PRES   REMARKS
NASHVILLE      MOCLDY    73  65  75 S8        29.92S
DICKSON        CLEAR     70  66  88 SW8       29.91F
PORTLAND       CLEAR     72  68  88 S7        29.92S
CLARKSVILLE    LGT RAIN  71  67  87 SW3       29.91S
SMYRNA         FAIR      71  66  84 CALM      29.93F
MURFREESBORO   MOCLDY    72  68  88 S6        29.92S
COOKEVILLE     CLEAR     68  66  94 S3        29.94F
LIVINGSTON     CLEAR     72  64  78 SW5       29.94S
CROSSVILLE     MOCLDY    70  65  84 VRB3      30.00S
ROCKWOOD       CLOUDY    70  64  83 SW6       29.99S
$$

TNZ061-075-076-078-094-096-097-260600-
SOUTH MIDDLE TENNESSEE

CITY           SKY/WX    TMP DP  RH WIND       PRES   REMARKS
LEWISBURG      CLEAR     66  66 100 CALM      29.92S
FAYETTEVILLE   PTCLDY    68  68 100 SE5       29.94F
TULLAHOMA      CLEAR     70  66  88 S7        29.94S
WINCHESTER     CLEAR     68  66  94 CALM      29.94F
MCMINNVILLE    CLEAR     70  66  88 CALM      29.94F
COLUMBIA       CLEAR     68  68 100 CALM      29.90S
SHELBYVILLE    CLEAR     70  68  94 CALM      29.94R
$$

TNZ017-018-042-046-047-260600-
NORTHEAST TENNESSEE

CITY           SKY/WX    TMP DP  RH WIND       PRES   REMARKS
TRI CITIES     FAIR      70  64  81 SE3       29.98F
ELIZABETHTON     N/A     68  63  83 CALM      30.00F
GREENEVILLE    MOCLDY    70  63  78 S5        29.97F
$$

TNZ012-013-036-069-073-074-260600-
CENTRAL EAST TENNESSEE

CITY           SKY/WX    TMP DP  RH WIND       PRES   REMARKS
KNOXVILLE      CLOUDY    74  68  81 W6        29.95S
OAK RIDGE      MOCLDY    73  71  93 CALM      29.97S
DOWNTOWN KNOXV   N/A     72  68  88 CALM      29.95S
GATLINBURG     CLOUDY    72  68  88 CALM      29.95S
MORRISTOWN     CLOUDY    72  66  83 CALM      29.96F
JACKSBORO      CLEAR     68  64  88 VRB3      29.99S
$$

TNZ083-085-099-260600-
SOUTHEAST TENNESSEE

CITY           SKY/WX    TMP DP  RH WIND       PRES   REMARKS
CHATTANOOGA    FAIR      75  67  76 SE6       29.95F
DAYTON         MOCLDY    70  70 100 CALM      29.95S
$$

SKY/WX REPORTED AS FAIR MEANS FEW OR NO CLOUDS BELOW
12 THOUSAND FEET.





USA.gov is the U.S. government's official web portal to all federal, state and local government web resources and services.